DW7248 Weather Reports


time (UTC)temp
C
wind
direction
speed
KPH
gust
KPH
rain 1hr
cm
rain 24hr
cm
rain mn
cm
humidity
%
barometer
mb
20240614111453 18 245 0.0 0.0 0.00 1.30 0.00 97 1010.6
20240614101453 18 245 0.0 0.0 0.00 1.30 0.00 97 1010.4
20240614094453 18 245 0.0 0.0 0.00 1.30 0.00 97 1010.2
20240614084451 18 256 0.0 4.8 0.00 1.30 0.00 96 1009.9
20240614074451 19 250 0.0 4.8 0.00 1.30 0.00 96 1009.3
20240614071450 19 275 0.0 4.8 0.00 1.30 0.00 96 1009.0
20240614061449 19 260 0.0 0.0 0.00 1.30 0.00 96 1008.4
20240614054447 19 218 0.0 0.0 0.00 1.30 0.00 95 1008.3
20240614044445 21 255 0.0 12.9 0.00 1.30 1.30 91 1009.2
20240614034445 20 131 0.0 0.0 0.00 1.30 1.30 96 1008.6
20240614031445 21 131 0.0 0.0 0.00 1.30 1.30 95 1008.0
20240614021443 21 131 0.0 0.0 0.00 1.30 1.30 94 1007.9
20240614014440 21 141 0.0 0.0 0.00 1.30 1.30 92 1006.8
20240614004439 23 101 1.6 11.3 0.00 1.30 1.30 86 1007.3
20240614001437 24 134 0.0 11.3 0.00 1.30 1.30 88 1007.4
20240613231437 25 126 0.0 8.0 0.00 1.30 1.30 96 1007.2
20240613224437 24 141 0.0 9.7 0.00 1.30 1.30 97 1007.7
20240613221436 24 97 0.0 0.0 0.00 1.30 1.30 97 1007.4
20240613214436 23 162 0.0 0.0 1.30 1.30 1.30 97 1008.0
20240613211437 22 68 0.0 19.3 1.30 1.30 1.30 93 1007.7
20240613204438 30 257 0.0 4.8 0.00 0.00 0.00 56 1006.6
20240613194434 31 276 1.6 14.5 0.00 0.00 0.00 52 1007.3
20240613191435 32 252 3.2 17.7 0.00 0.00 0.00 49 1007.4
20240613184434 32 242 3.2 20.9 0.00 0.00 0.00 51 1007.5
20240613181432 32 306 4.8 22.5 0.00 0.00 0.00 50 1007.7
20240613174432 31 264 3.2 22.5 0.00 0.00 0.00 52 1007.7
20240613154430 28 275 4.8 27.4 0.00 0.00 0.00 60 1007.6
20240613151430 27 295 3.2 27.4 0.00 0.00 0.00 65 1007.5
20240613144431 25 248 4.8 20.9 0.00 0.00 0.00 71 1007.5
20240613141428 25 189 0.0 4.8 0.00 0.00 0.00 74 1008.0
20240613134429 25 240 0.0 12.9 0.00 0.00 0.00 69 1009.6
20240613131427 25 176 0.0 3.2 0.00 0.00 0.00 71 1010.0
20240613124427 25 203 0.0 9.7 0.00 0.00 0.00 70 1009.8
20240613121427 23 255 0.0 3.2 0.00 0.00 0.00 75 1009.3
20240613114427 21 229 0.0 1.6 0.00 0.00 0.00 79 1009.1